Location: Deposit
(42.0600°N, 75.4280°W)
Time: 21:17:06
(UTC-04:00)

N. Korean satellite - Visible Passes

Search period start: 19 October 2019 00:00
Search period end: 29 October 2019 00:00
Orbit: 455 x 508 km, 97.2° (Epoch: 19 October)

Date Brightness Start Highest point End Pass type
(mag) Time Alt. Az. Time Alt. Az. Time Alt. Az.
19 Oct 10.1 05:59:41 10° ENE 06:01:47 15° E 06:03:53 10° SE visible
20 Oct 10.4 19:18:04 10° WSW 19:19:15 11° W 19:20:27 10° WNW visible
21 Oct 7.7 06:41:14 10° NNE 06:44:46 49° E 06:48:20 10° S visible
21 Oct 9.3 18:50:58 10° SSW 18:53:46 23° W 18:56:36 10° NW visible
22 Oct 9.3 06:16:23 10° NE 06:19:23 24° E 06:22:24 10° SSE visible
23 Oct 10.3 05:52:25 10° ENE 05:53:54 12° E 05:55:23 10° ESE visible
24 Oct 10.0 19:09:22 10° SW 19:11:19 14° W 19:13:17 10° WNW visible
25 Oct 8.3 06:33:27 10° NNE 06:36:55 39° E 06:40:23 10° SSE visible
25 Oct 8.9 18:42:48 10° SSW 18:45:51 29° W 18:48:56 10° NW visible
26 Oct 9.7 06:08:45 10° NE 06:11:29 20° E 06:14:14 10° SE visible
28 Oct 7.1 06:50:43 10° NNE 06:54:23 69° ESE 06:58:04 10° S visible
28 Oct 9.8 19:00:55 10° SW 19:03:21 18° W 19:05:50 10° NW visible
